Location: Peebles
(55.6412°N, 3.1714°W)
Time: 16:05:50
(UTC+01:00)

SJ 16-02 - Pass Details

Date: 26 September 2021
Orbit: 605 x 617 km, 75.0° (Epoch: 18 October)

Event Time Altitude Azimuth Distance (km) Brightness Sun altitude
Rises 19:51:35 0° 170° (S) 2,875 4.6 -8.0°
Reaches altitude 10° 19:54:04 10° 159° (SSE) 1,976 3.7 -8.3°
Maximum altitude 19:57:47 27° 101° (ESE) 1,195 2.3 -8.9°
Drops below altitude 10° 20:01:31 10° 44° (NE) 1,993 3.6 -9.4°
Sets 20:04:01 0° 33° (NNE) 2,904 4.6 -9.7°
